Location: Unspecified
(49.2170°N, 0.0000°E)
Time: 10:19:07
(UTC+00:00)

S-56A Canister/Altair - Pass Details

Date: 23 January 2021
Orbit: 631 x 2501 km, 38.9° (Epoch: 05 March)

Event Time Altitude Azimuth Distance (km) Brightness Sun altitude
Exits shadow 05:41:41 19° 221° (SW) 1,657 8.9 -19.4°
Maximum altitude 05:43:47 25° 184° (S) 1,505 9.0 -19.1°
Drops below altitude 10° 05:48:37 10° 130° (SE) 2,659 11.1 -18.3°
Sets 05:52:07 0° 119° (ESE) 3,903 12.5 -17.7°
